{"data":{"norad_id":54048,"epoch":"2026-09-20T03:17:50.253216Z","epoch_age_seconds":49524,"freshness":"FRESH","line1":"1 54048U 22134A   26263.13738719  .00000083  00000+0  00000+0 0  9990","line2":"2 54048   0.0634 288.4007 0001917  79.4079  53.6971  1.00273302 14328","mean_motion":1.00273302,"eccentricity":0.0001917,"inclination_deg":0.0634,"raan_deg":288.4007,"arg_perigee_deg":79.4079,"mean_anomaly_deg":53.6971,"bstar":0,"rev_number":1432,"period_min":1436.0751778175,"perigee_km":35778.08679879,"apogee_km":35794.252593977,"semimajor_km":42164.306696383,"source":"CELESTRAK","updated_at":"2026-09-20T09:00:35.307309Z"}}